Simultaneous Nadir Overpasses (SNOs) Predictions

Prediction of SNOs between NOAA-20 and METOP-C Satellite Orbit:

Table of predicted SNOs for the next 14.0 days since TLE Epoch: 12/6/2019
Index Date (NOAA-20) Time (NOAA-20) Lat,Lon (NOAA-20) SZA (NOAA-20 ) Date (METOP-C) Time (METOP-C) Lat,Lon (METOP-C) SZA (METOP-C ) Distance(km) Time Diff (sec)
1 12/17/2019 05:10:37 -73.53, -87.60 83.05 12/17/2019 05:11:43 -73.48, -84.53 83.20 96.99 66
2 12/17/2019 06:01:19 73.33, 80.15 96.75 12/17/2019 06:02:27 73.29, 82.38 96.63 71.30 68
3 12/17/2019 06:52:01 -73.23,-112.31 83.36 12/17/2019 06:53:11 -73.16,-110.59 83.51 55.98 70
4 12/17/2019 07:42:43 73.04, 55.43 96.44 12/17/2019 07:43:55 72.97, 56.33 96.32 30.47 72
5 12/17/2019 08:33:25 -72.94,-137.04 83.67 12/17/2019 08:34:38 -72.88,-136.52 83.76 18.32 73
6 12/17/2019 09:24:08 72.79, 30.58 96.17 12/17/2019 09:25:20 72.79, 30.63 96.16 1.54 72
7 12/17/2019 10:14:52 -72.79,-162.11 83.83 12/17/2019 10:16:01 -72.81,-162.01 83.82 3.74 69
8 12/17/2019 11:05:37 72.75, 5.30 96.13 12/17/2019 11:06:42 72.77, 5.24 96.14 3.23 65
9 12/17/2019 11:56:22 -72.80, 172.50 83.82 12/17/2019 11:57:23 -72.79, 172.60 83.84 3.53 61
10 12/17/2019 12:47:07 72.75, -20.09 96.14 12/17/2019 12:48:04 72.75, -20.15 96.13 2.14 57
11 12/17/2019 13:37:51 -72.75, 147.22 83.86 12/17/2019 13:38:45 -72.76, 147.22 83.86 1.13 54
12 12/17/2019 14:28:37 72.76, -45.47 96.15 12/17/2019 14:29:25 72.77, -45.43 96.15 2.31 48
13 12/17/2019 15:19:21 -72.76, 121.84 83.85 12/17/2019 15:20:07 -72.74, 121.83 83.88 2.05 46
14 12/17/2019 16:10:07 72.76, -70.86 96.16 12/17/2019 16:10:47 72.75, -70.82 96.14 1.88 40
15 12/17/2019 17:00:51 -72.76, 96.45 83.85 12/17/2019 17:01:28 -72.77, 96.55 83.85 3.16 37
16 12/17/2019 17:51:36 72.72, -96.14 96.11 12/17/2019 17:52:09 72.73, -96.21 96.12 2.47 33
17 12/17/2019 18:42:20 -72.72, 71.17 83.89 12/17/2019 18:42:50 -72.75, 71.16 83.87 2.96 30
18 12/17/2019 19:33:06 72.72,-121.53 96.12 12/17/2019 19:33:31 72.70,-121.59 96.10 3.03 25
19 12/17/2019 20:23:50 -72.72, 45.79 83.88 12/17/2019 20:24:12 -72.72, 45.77 83.89 0.46 22
20 12/17/2019 21:14:36 72.73,-146.91 96.13 12/17/2019 21:14:52 72.73,-146.88 96.13 1.26 16
21 12/17/2019 22:05:20 -72.73, 20.40 83.87 12/17/2019 22:05:34 -72.70, 20.39 83.91 3.37 14
22 12/17/2019 22:56:06 72.73,-172.30 96.14 12/17/2019 22:56:14 72.71,-172.26 96.11 2.96 8
23 12/17/2019 23:46:50 -72.74, -4.99 83.87 12/17/2019 23:46:55 -72.73, -4.90 83.88 3.08 5
24 12/18/2019 00:37:35 72.69, 162.42 96.09 12/18/2019 00:37:36 72.69, 162.35 96.09 2.39 1
25 12/18/2019 01:28:19 -72.69, -30.27 83.91 12/18/2019 01:28:17 -72.71, -30.28 83.90 1.71 2
26 12/18/2019 02:19:05 72.69, 137.04 96.10 12/18/2019 02:18:57 72.71, 137.07 96.12 2.44 8
27 12/18/2019 03:09:49 -72.70, -55.65 83.90 12/18/2019 03:09:39 -72.68, -55.67 83.92 1.61 10
28 12/18/2019 04:00:35 72.70, 111.65 96.11 12/18/2019 04:00:19 72.69, 111.68 96.10 1.39 16
29 12/18/2019 04:51:19 -72.70, -81.04 83.90 12/18/2019 04:51:00 -72.71, -80.95 83.89 3.02 19
30 12/18/2019 05:42:04 72.65, 86.37 96.06 12/18/2019 05:41:41 72.67, 86.29 96.08 2.91 23
31 12/18/2019 06:32:48 -72.66,-106.32 83.94 12/18/2019 06:32:22 -72.69,-106.34 83.91 3.52 26
32 12/18/2019 07:23:34 72.66, 60.98 96.07 12/18/2019 07:23:03 72.64, 60.91 96.06 3.05 31
33 12/18/2019 08:14:18 -72.66,-131.70 83.93 12/18/2019 08:13:44 -72.66,-131.72 83.92 0.73 34
34 12/18/2019 09:05:03 72.67, 35.60 96.08 12/18/2019 09:04:23 72.67, 35.62 96.09 1.18 40
35 12/18/2019 09:55:47 -72.67,-157.09 83.92 12/18/2019 09:55:05 -72.64,-157.11 83.94 2.90 42
36 12/18/2019 10:46:33 72.67, 10.21 96.09 12/18/2019 10:45:45 72.65, 10.24 96.07 2.53 48
37 12/18/2019 11:37:17 -72.67, 177.52 83.92 12/18/2019 11:36:26 -72.67, 177.61 83.91 2.75 51
38 12/18/2019 12:28:02 72.63, -15.07 96.04 12/18/2019 12:27:07 72.63, -15.15 96.05 2.65 55
39 12/18/2019 13:18:46 -72.63, 152.24 83.96 12/18/2019 13:17:48 -72.65, 152.22 83.93 2.28 58
40 12/18/2019 14:09:32 72.63, -40.46 96.05 12/18/2019 14:08:28 72.65, -40.43 96.08 2.67 64
41 12/18/2019 15:00:16 -72.63, 126.86 83.95 12/18/2019 14:59:10 -72.62, 126.83 83.95 1.25 66
42 12/18/2019 15:51:02 72.64, -65.84 96.06 12/18/2019 15:49:50 72.63, -65.82 96.06 0.96 72
43 12/18/2019 16:41:46 -72.64, 101.47 83.95 12/18/2019 16:40:31 -72.65, 101.55 83.92 3.04 75
44 12/18/2019 17:32:28 72.44, -90.81 95.85 12/18/2019 17:31:15 72.46, -91.51 95.90 23.52 73
45 12/18/2019 18:23:10 -72.34, 76.70 84.26 12/18/2019 18:21:58 -72.38, 75.66 84.18 35.37 72
46 12/18/2019 19:13:52 72.14,-115.60 95.53 12/18/2019 19:12:43 72.12,-117.50 95.60 64.90 69
47 12/18/2019 20:04:34 -72.04, 51.91 84.58 12/18/2019 20:03:26 -72.05, 49.68 84.48 76.41 68




NCC Satellite Simultaneous Nadir Overpasses (SNOs) Prediction Service
